Date,TemperatureHighF,TemperatureAvgF,TemperatureLowF,DewpointHighF,DewpointAvgF,DewpointLowF,HumidityHigh,HumidityAvg,HumidityLow,PressureMaxIn,PressureMinIn,WindSpeedMaxMPH,WindSpeedAvgMPH,GustSpeedMaxMPH,PrecipitationSumIn
2013-2-1,68.7,56.1,46.4,51.1,43.2,35.9,91,64,35,30.11,29.95,15,2,21,0.00
2013-2-2,70.9,59.4,51.3,59.9,54.5,46.9,99,85,62,29.95,29.81,19,3,19,0.00
2013-2-3,69.6,62.5,59.4,60.6,59.6,58.0,99,91,71,29.97,29.83,23,9,30,0.00
2013-2-4,71.1,62.8,58.6,65.3,59.7,57.9,99,90,71,30.02,29.95,10,1,11,0.00
2013-2-5,66.6,60.3,54.3,59.9,55.7,49.9,98,85,69,30.02,29.88,13,1,17,0.00
2013-2-6,70.0,58.7,50.9,62.1,54.5,49.0,99,87,65,29.89,29.71,10,1,10,0.00
2013-2-7,66.4,58.2,52.3,57.4,54.3,50.9,99,87,70,29.75,29.58,22,7,30,0.15
2013-2-8,65.3,56.3,51.1,51.9,48.1,43.2,85,74,60,29.79,29.58,14,1,14,0.00
2013-2-9,67.5,57.2,49.6,50.3,46.9,43.4,83,69,52,29.92,29.79,11,2,13,0.00
2013-2-10,66.7,56.2,49.8,53.4,46.5,43.6,82,70,54,29.93,29.83,8,1,11,0.00
2013-2-11,58.5,52.2,48.2,45.3,42.4,39.1,86,70,53,30.09,29.81,18,3,20,0.00
2013-2-12,64.9,55.8,48.0,54.2,47.9,38.7,87,75,55,30.11,30.04,13,2,14,0.00
2013-2-13,58.6,55.2,48.7,55.2,52.1,48.5,99,89,79,30.04,29.92,21,3,29,0.52
2013-2-14,56.3,51.1,48.4,52.3,49.8,48.1,99,96,83,29.95,29.73,14,2,17,0.41
2013-2-15,60.3,50.5,46.8,54.1,48.2,45.8,99,92,74,30.07,29.72,11,2,14,0.13
2013-2-16,64.0,53.6,47.1,54.4,49.2,45.5,95,86,67,30.10,30.02,14,1,14,0.14
2013-2-17,50.9,48.3,44.4,50.5,46.1,41.6,99,92,84,30.10,29.98,26,5,27,0.45
2013-2-18,62.1,50.1,42.3,48.9,43.6,40.7,96,79,58,30.12,30.08,9,1,17,0.00
2013-2-19,62.6,53.7,49.8,57.5,49.9,44.5,99,87,70,30.09,29.81,13,2,18,0.09
2013-2-20,66.2,55.4,46.4,50.7,45.3,41.4,91,70,47,30.09,29.86,12,2,15,0.00
2013-2-21,58.1,54.7,52.7,56.7,48.9,45.5,95,81,71,30.09,29.75,21,2,27,0.04
2013-2-22,62.4,56.0,49.1,62.2,54.9,48.8,99,96,86,29.77,29.60,26,2,26,1.46
2013-2-23,71.1,59.9,51.1,66.3,56.1,50.8,99,88,65,30.06,29.77,4,0,6,0.00
2013-2-24,69.3,61.9,54.3,64.0,58.1,52.9,99,88,72,30.13,30.06,13,2,20,0.00
2013-2-25,69.8,63.8,60.6,62.1,58.9,56.3,99,85,74,30.11,30.01,14,3,18,0.00
2013-2-26,71.4,62.6,54.0,63.4,56.9,49.1,99,83,58,30.08,30.00,8,0,9,0.00
2013-2-27,64.4,56.5,51.6,52.7,48.2,44.8,89,75,55,30.09,29.99,7,1,9,0.00
2013-2-28,58.3,52.1,47.8,48.6,45.0,41.5,84,77,68,30.24,30.09,8,1,11,0.00